Change the Weather History Date:

Wednesday, October 12, 2011

  Actual Average Record
Temperature  
Mean Temperature 72 °F -  
Max Temperature 86 °F 69 °F 86 °F (2011)
Min Temperature 57 °F 53 °F 43 °F (2008)
Cooling Degree Days 6    
Growing Degree Days 22 (Base 50)    
Moisture  
Dew Point 57 °F    
Average Humidity 58    
Maximum Humidity 81    
Minimum Humidity 35    
Precipitation  
Precipitation 0.01 in - - ()
Sea Level Pressure  
Sea Level Pressure 29.84 in    
Wind  
Wind Speed 5 mph (WNW)    
Max Wind Speed 9 mph    
Max Gust Speed -    
Visibility 8 miles    
Events      
Averages and records for this station are not official NWS values.
T = Trace of Precipitation, MM = Missing Value Source: NWS Daily Summary

Daily Weather History Graph

Daily Weather History Graph

Search for Another Location

Airport or City:

Trip Planner

Search our weather history database for the weather conditions in past years. The results will help you decide how hot, cold, wet, or windy it might be!

Date:

Astronomy

Oct. 12, 2011 Rise Set
Actual Time 6:59 AM PDT 6:26 PM PDT
Civil Twilight 6:34 AM PDT 6:51 PM PDT
Nautical Twilight 6:04 AM PDT 7:20 PM PDT
Astronomical Twilight 5:35 AM PDT 7:49 PM PDT
Moon 6:36 PM PDT (10/12) 7:34 AM PDT (10/12)
Length of Visible Light 12h 17m
Length of Day
11h 27m
Full, 100% of the Moon is Illuminated
Oct 12
Full
Oct 19
Last Quarter
Oct 26
New
Nov 2
First Quarter
Nov 10
Full

Hourly Weather History & Observations

Time (PDT) Temp. Heat Index Dew Point Humidity Pressure Visibility Wind Dir Wind Speed Gust Speed Precip Events Conditions
12:54 AM 62.1 °F - - N/A% 29.85 in 10.0 mi NW 8.1 mph - N/A   Clear
1:54 AM 63.0 °F - - N/A% 29.85 in 10.0 mi NNW 6.9 mph - N/A   Clear
2:54 AM 62.1 °F - - N/A% 29.84 in 10.0 mi NNW 6.9 mph - N/A   Clear
3:54 AM 62.1 °F - - N/A% 29.83 in 10.0 mi Calm Calm - N/A   Clear
4:54 AM 63.0 °F - - N/A% 29.83 in 10.0 mi Calm Calm - N/A   Clear
5:54 AM 61.3 °F - 55.2 °F 80% 29.83 in 7.0 mi Calm Calm - N/A   Clear
6:54 AM 57.9 °F - 49.8 °F 74% 29.85 in 7.0 mi Calm Calm - N/A   Clear
7:54 AM 62.1 °F - 51.4 °F 68% 29.87 in 7.0 mi WSW 3.5 mph - N/A   Clear
8:54 AM 70.0 °F - 58.1 °F 66% 29.89 in 7.0 mi ESE 3.5 mph - N/A   Clear
9:54 AM 75.9 °F - 62.6 °F 63% 29.88 in 7.0 mi SSE 4.6 mph - 0.01 in   Clear
10:54 AM 75.9 °F - 62.1 °F 62% 29.87 in 7.0 mi South 5.8 mph - N/A   Clear
11:54 AM 72.7 °F - 58.8 °F 62% 29.86 in 7.0 mi SW 8.1 mph - N/A   Clear
12:54 PM 78.1 °F - 59.0 °F 52% 29.85 in 7.0 mi West 8.1 mph - N/A   Clear
1:54 PM 80.1 °F 80.7 °F 59.0 °F 48% 29.83 in 7.0 mi West 9.2 mph - N/A   Clear
2:54 PM 81.0 °F 81.0 °F 57.2 °F 44% 29.82 in 7.0 mi WSW 5.8 mph - N/A   Clear
3:54 PM 86.0 °F 84.5 °F 55.6 °F 35% 29.82 in 7.0 mi WNW 4.6 mph - N/A   Clear
4:54 PM 82.0 °F 82.0 °F 58.3 °F 44% 29.81 in 7.0 mi WNW 3.5 mph - N/A   Clear
5:54 PM 78.1 °F - 53.1 °F 42% 29.81 in 7.0 mi WNW 4.6 mph - N/A   Clear
6:54 PM 75.9 °F - 55.2 °F 49% 29.81 in 7.0 mi ENE 3.5 mph - N/A   Clear
7:54 PM 73.9 °F - 52.7 °F 47% 29.82 in 7.0 mi North 3.5 mph - N/A   Clear
8:54 PM 68.0 °F - 58.1 °F 71% 29.82 in 7.0 mi NNW 5.8 mph - N/A   Clear
9:54 PM 64.9 °F - 58.8 °F 81% 29.83 in 7.0 mi NNW 3.5 mph - N/A   Clear
10:54 PM 66.9 °F - - N/A% 29.83 in 10.0 mi North 6.9 mph - N/A   Clear
11:54 PM 66.0 °F - - N/A% 29.83 in 10.0 mi NNW 6.9 mph - N/A   Clear